Home > Weather > Andernach > Past weeks

Flag for Germany Past Weather in Andernach, Rhineland-Palatinate, Germany — Yesterday and Last 2 Weeks

Now
73 °F

Mild.


Feels Like: 77 °F
Forecast: 62 / 94 °F
Wind: 7 mph from South

Location: Buechel

Current Time: Aug 26, 2016 at 1:56:27 AM

Latest Report: Aug 26, 2016 at 1:20 AM


Visibility: 6 mi

Pressure: 30.04 "Hg

Humidity: 57%

Dew Point: 57 °F

Location of AndernachLocation

Past Weather in Andernach — Graph

°F

Andernach Temperature Yesterday

Maximum temperature yesterday: 86 °F (at 4:20 PM)
Minimum temperature yesterday: 64 °F (at 6:20 AM)
Average temperature yesterday: 75 °F

High & Low Weather Summary for the Past Weeks

 TemperatureHumidityPressure
High86 °F (Aug 25, 4:20 PM)100% (Aug 11, 6:20 AM)30.39 "Hg (Aug 11, 6:20 AM)
Low41 °F (Aug 11, 6:20 AM)35% (Aug 25, 3:20 PM)29.83 "Hg (Aug 18, 6:20 AM)
Average63 °F74%30.13 "Hg
* Reported Aug 11 12:20 AM — Aug 26 12:20 AM, Andernach, Weather by CustomWeather, © 2016

Note: Actual official high and low records may vary slightly from our data, if they occured in-between our weather recording intervals... More about our weather records

Advertising

Andernach Weather History for the Previous 24 Hours

Scroll right to see more
 ConditionsComfort  
Time TempWeatherWind HumidityBarometerVisibility
12:20 AM
Fri, Aug 26
73 °FMild.7 mph57%30.04 "Hg6 mi
11:20 PM
Thu, Aug 25
75 °FMild.7 mph54%30.07 "HgN/A
10:20 PM77 °FWarm.5 mph47%30.07 "HgN/A
9:20 PM77 °FWarm.7 mph47%30.07 "HgN/A
8:20 PM79 °FWarm.6 mph45%30.04 "HgN/A
7:20 PM82 °FPleasantly warm.7 mph40%30.04 "HgN/A
6:20 PM86 °FPleasantly warm.6 mph35%30.04 "HgN/A
5:20 PM86 °FPleasantly warm.6 mph35%30.07 "HgN/A
4:20 PM86 °FPleasantly warm.7 mph35%30.07 "HgN/A
3:20 PM84 °FPleasantly warm.7 mph35%30.07 "HgN/A
2:20 PM82 °FPleasantly warm.7 mph37%30.09 "HgN/A
1:20 PM81 °FWarm.7 mph42%30.09 "HgN/A
12:20 PM79 °FWarm.8 mph48%30.09 "HgN/A
11:20 AM75 °FMild.6 mph57%30.12 "HgN/A
10:20 AM73 °FMild.8 mph57%30.12 "HgN/A
9:20 AM72 °FMild.7 mph61%30.12 "HgN/A
8:20 AM68 °FMild.8 mph64%30.12 "HgN/A
7:20 AM64 °FMild.5 mph73%30.12 "HgN/A
6:20 AM64 °FMild.3 mph73%30.12 "HgN/A
5:20 AM66 °FMild.5 mph68%30.12 "HgN/A
4:20 AM68 °FMild.6 mph64%30.12 "Hg4 mi
3:20 AM70 °FMild.6 mph64%30.15 "HgN/A
2:20 AM70 °FMild.7 mph64%30.15 "HgN/A
1:20 AM70 °FMild.6 mph64%30.15 "HgN/A
Weather by CustomWeather, © 2016

See weather overviewHow to use our weather pages